Regional Weather Roundup
Issued by NWS

Home | Current Version | Previous Version | Text Only | Print | Product List | Glossary On
Versions: 1 2 3 4 5 6 7 8 9 10 11 12 13 14 15 16 17 18 19 20 21 22 23 24 25 26 27
000
ASUS42 KKEY 230310
RWRKEY

FLORIDA REGIONAL WEATHER ROUNDUP FOR THE FLORIDA KEYS
NATIONAL WEATHER SERVICE KEY WEST FLORIDA
1100 PM EDT TUE MAY 22 2018

...SOUTH FLORIDA AND THE KEYS...

CITY           SKY/WX    TMP DP  RH WIND       PRES   REMARKS
FORT MYERS     FAIR      74  72  93 E5        30.06R
SW REGIONAL AP FAIR      74  71  91 E7        30.07R
NAPLES         FAIR      76  73  91 E5        30.06R
MIAMI          FAIR      78  72  81 E14       30.07R
WEST KENDALL   MOCLDY    78  71  79 E12       30.06R
HOMESTEAD      FAIR      78  72  82 E10       30.05R
MARATHON       FAIR      80  71  74 E9G17     30.04R
KEY WEST INTL  FAIR      79  76  90 E18       30.03S

...INTERNATIONAL WEATHER...

CITY           SKY/WX    TMP DP  RH WIND       PRES   REMARKS
NASSAU BAHAMAS MOCLDY    77  72  83 E9        30.09S
CANCUN MEXICO  MOCLDY    81  77  89 E10       29.89F
COZUMEL MEXICO PTCLDY    79  75  89 E8        29.87R

ADJACENT COASTAL WATERS...

STATION/POSITION TIME  SKY/WX   TEMP    WIND        PRES    WAVE
                                AIR SEA DIR/SP/G            HT/PER
                 (UTC)          (F)     (DEG/KT/KT) (MB)    (FT/S)
PULASKI SHOAL LI 0300            79     100/ 15/ 17 1016.6R
SAND KEY         0250            80                 1016.6R
SOMBRERO KEY     0250            80      70/ 17/ 20 1016.5R
LONG KEY         0300            79 78  110/ 14/ 16 1017.3R
MOLASSES REEF    0300            79 79   90/ 14/ 15 1017.7R
FOWEY ROCKS      0300            78 77   90/ 20/ 21 1018.4R
Buoy 42097       0230               81                N/A     4/ 5

$$




USA.gov is the U.S. government's official web portal to all federal, state and local government web resources and services.